PulseSat

PulseSat

GSAT0204

Last updated on May 29, 2016, 5:39 p.m. UTC

1 40545U 15017B   16149.56705633 -.00000013  00000-0  00000-0 0  9993
2 40545  55.3350  82.8616 0000571 233.5015 126.4758  1.70475220  7271
UTC
Height (km)
Latitude
Longitude
Inclination
Orbital Period

Next 30 passes for location: Hong Kong

Rise time Rise Azimuth (degrees) Set time Set Azimuth (degrees) Duration Max altitude (degrees)

No matching passes for this satellites

PulseSat

PulseSat is the new satellites software and hardware trackering solution by Pulsely.
Satellite Two Line Element Set source: US Air Force Space Command

Download PulseSat for iOS
© 2017 Pulsely Limited